Location: Gwatt
(46.7204°N, 7.6223°E)
Time: 08:47:10
(UTC+00:00)

Vanguard 3 - Pass Details

Date: 25 January 2021
Orbit: 508 x 3261 km, 33.3° (Epoch: 24 February)

Event Time Altitude Azimuth Distance (km) Brightness Sun altitude
Exits shadow 05:09:50 16° 237° (WSW) 2,914 9.5 -19.0°
Maximum altitude 05:16:10 39° 178° (S) 2,472 9.6 -18.0°
Drops below altitude 10° 05:28:47 10° 117° (ESE) 5,288 12.5 -15.8°
Sets 05:34:07 0° 111° (ESE) 6,674 13.6 -14.9°
